CW9854 Weather Reports


Display with metric or nautical units.
time (UTC)temp
F
wind
direction
speed
MPH
gust
MPH
rain 1hr
in
rain 24hr
in
rain mn
in
humidity
%
barometer
mb
20260901133503 73 210 0.0 2.0 0.00 0.22 0.05 97 1013.7
20260901133003 73 50 0.0 2.0 0.00 0.22 0.05 97 1013.7
20260901132718 73 309 0.0 1.0 0.00 0.23 0.05 97 1013.7
20260901132003 72 309 0.0 1.0 0.00 0.23 0.05 98 1013.8
20260901131718 72 309 0.0 1.0 0.00 0.24 0.05 98 1013.8
20260901131003 72 309 0.0 1.0 0.01 0.27 0.05 97 1013.9
20260901130503 72 309 0.0 1.0 0.01 0.28 0.05 98 1013.9
20260901130003 72 300 0.0 1.0 0.01 0.31 0.05 98 1013.9
20260901125503 72 300 0.0 1.0 0.01 0.32 0.05 97 1013.9
20260901125003 72 229 0.0 1.0 0.01 0.32 0.05 97 1013.9
20260901124503 71 228 0.0 1.0 0.01 0.32 0.05 98 1014.0
20260901124003 71 228 0.0 1.0 0.01 0.33 0.05 97 1013.9
20260901123503 71 0 0.0 0.0 0.01 0.41 0.05 97 1013.9
20260901123003 71 0 0.0 0.0 0.01 0.51 0.05 97 1013.8
20260901122503 70 0 0.0 0.0 0.01 0.54 0.05 97 1013.8
20260901122217 70 0 0.0 0.0 0.01 0.54 0.05 97 1013.8
20260901121503 70 0 0.0 0.0 0.01 0.55 0.05 97 1013.7
20260901121003 70 0 0.0 0.0 0.00 0.54 0.04 97 1013.6
20260901120503 70 0 0.0 0.0 0.00 0.55 0.04 97 1013.6
20260901120003 70 0 0.0 0.0 0.00 0.55 0.04 97 1013.6
20260901115503 70 0 0.0 0.0 0.00 0.55 0.04 97 1013.5
20260901115217 70 0 0.0 0.0 0.00 0.55 0.04 97 1013.5
20260901114503 69 0 0.0 0.0 0.00 0.55 0.04 96 1013.5
20260901114003 69 0 0.0 0.0 0.00 0.55 0.04 96 1013.5
20260901113503 69 0 0.0 0.0 0.00 0.55 0.04 96 1013.5
20260901113217 69 0 0.0 0.0 0.00 0.55 0.04 96 1013.5
20260901112718 69 0 0.0 0.0 0.00 0.55 0.04 97 1013.4
20260901112003 69 0 0.0 0.0 0.00 0.55 0.04 97 1013.3
20260901111503 69 0 0.0 0.0 0.00 0.56 0.04 97 1013.4
20260901111003 69 0 0.0 0.0 0.00 0.56 0.04 96 1013.4
20260901110718 69 0 0.0 0.0 0.00 0.56 0.04 96 1013.4
20260901110216 69 0 0.0 0.0 0.00 0.56 0.04 96 1013.4
20260901105503 69 0 0.0 0.0 0.00 0.56 0.04 96 1013.4
20260901105003 69 0 0.0 0.0 0.00 0.56 0.04 96 1013.4
20260901104503 69 0 0.0 0.0 0.00 0.56 0.04 96 1013.4
20260901104003 69 0 0.0 0.0 0.00 0.56 0.04 96 1013.3
20260901103503 69 0 0.0 0.0 0.00 0.56 0.04 96 1013.3
20260901103003 69 0 0.0 0.0 0.00 0.56 0.04 96 1013.3
20260901102503 69 0 0.0 0.0 0.00 0.56 0.04 96 1013.3
20260901102003 69 0 0.0 0.0 0.00 0.56 0.04 96 1013.1
20260901101503 69 0 0.0 0.0 0.00 0.56 0.04 96 1013.0
20260901101003 69 0 0.0 0.0 0.00 0.56 0.04 96 1012.9
20260901100503 69 0 0.0 0.0 0.00 0.56 0.04 96 1012.9
20260901100220 69 0 0.0 0.0 0.00 0.56 0.04 96 1012.8
20260901095503 69 0 0.0 0.0 0.00 0.56 0.04 96 1012.9
20260901095218 69 0 0.0 0.0 0.00 0.56 0.04 96 1012.9
20260901094503 69 0 0.0 0.0 0.00 0.56 0.04 96 1012.9
20260901094003 69 0 0.0 0.0 0.00 0.56 0.04 96 1012.9
20260901093503 69 0 0.0 0.0 0.00 0.56 0.04 96 1012.9
20260901093003 69 0 0.0 0.0 0.00 0.56 0.04 96 1012.9
20260901092503 69 0 0.0 0.0 0.00 0.56 0.04 96 1012.9
20260901092003 69 0 0.0 0.0 0.01 0.56 0.04 96 1012.7
20260901091717 69 0 0.0 0.0 0.01 0.56 0.04 96 1012.7
20260901091003 69 0 0.0 0.0 0.01 0.56 0.04 96 1012.7
20260901090717 69 0 0.0 0.0 0.01 0.56 0.04 96 1012.7
20260901090003 69 0 0.0 0.0 0.01 0.56 0.04 96 1012.7
20260901085503 69 0 0.0 0.0 0.02 0.56 0.04 96 1012.7
20260901085003 69 0 0.0 0.0 0.03 0.56 0.04 96 1012.8
20260901084503 69 0 0.0 0.0 0.03 0.56 0.04 96 1012.7
20260901084003 69 228 0.0 1.0 0.03 0.56 0.04 97 1012.6
20260901083503 69 228 0.0 1.0 0.03 0.56 0.04 97 1012.7
20260901083218 69 228 0.0 1.0 0.03 0.56 0.04 97 1012.7
20260901082716 69 228 0.0 1.0 0.03 0.56 0.04 97 1012.7
20260901082003 69 228 0.0 1.0 0.02 0.55 0.03 96 1012.7
20260901081503 69 228 0.0 1.0 0.02 0.55 0.03 96 1012.7
20260901081004 69 228 0.0 1.0 0.02 0.55 0.03 96 1012.7
20260901080503 69 228 0.0 1.0 0.02 0.55 0.03 96 1012.7
20260901080217 69 228 0.0 1.0 0.02 0.55 0.03 96 1012.7
20260901075503 69 228 0.0 1.0 0.01 0.54 0.02 96 1012.8
20260901075003 69 228 0.0 1.0 0.00 0.53 0.01 96 1013.1
20260901074503 69 228 0.0 1.0 0.00 0.54 0.01 96 1012.9
20260901074003 69 228 0.0 1.0 0.00 0.54 0.01 96 1013.0
20260901073503 69 0 0.0 0.0 0.00 0.54 0.01 96 1013.0
20260901073003 69 0 0.0 0.0 0.00 0.54 0.01 96 1013.2
20260901072503 69 228 0.0 1.0 0.00 0.54 0.01 96 1013.2
20260901072003 69 228 0.0 1.0 0.00 0.54 0.01 96 1013.3
20260901071503 69 227 0.0 1.0 0.00 0.54 0.01 96 1013.2
20260901071003 69 222 0.0 1.0 0.00 0.54 0.01 96 1013.4
20260901070503 69 211 0.0 1.0 0.00 0.55 0.01 96 1013.4
20260901070003 69 211 0.0 1.0 0.00 0.55 0.01 96 1013.4
20260901065503 69 211 0.0 1.0 0.00 0.55 0.01 96 1013.5
20260901065217 69 211 0.0 1.0 0.00 0.55 0.01 96 1013.4
20260901064503 69 211 0.0 1.0 0.00 0.55 0.01 96 1013.6
20260901064003 69 0 0.0 0.0 0.00 0.56 0.01 96 1013.6
20260901063503 69 211 0.0 1.0 0.00 0.57 0.01 96 1013.7
20260901063003 69 211 0.0 1.0 0.00 0.58 0.01 96 1013.9
20260901062718 69 0 0.0 0.0 0.00 0.58 0.01 96 1013.8
20260901062217 69 0 0.0 0.0 0.01 0.58 0.01 96 1013.9
20260901061503 68 0 0.0 0.0 0.01 0.58 0.01 96 1014.0
20260901061003 68 0 0.0 0.0 0.01 0.58 0.01 96 1014.0
20260901060503 68 0 0.0 0.0 0.01 0.58 0.01 96 1014.1
20260901060003 68 0 0.0 0.0 0.01 0.58 0.01 96 1014.2
20260901055503 68 0 0.0 0.0 0.01 0.58 0.01 96 1014.2
20260901055216 68 0 0.0 0.0 0.01 0.58 0.01 96 1014.2
20260901054503 68 0 0.0 0.0 0.01 0.58 0.01 96 1014.3
20260901054216 68 0 0.0 0.0 0.01 0.59 0.01 96 1014.3
20260901053503 68 0 0.0 0.0 0.01 0.59 0.01 96 1014.4
20260901053003 68 0 0.0 0.0 0.01 0.59 0.01 96 1014.4
20260901052719 68 0 0.0 0.0 0.01 0.59 0.01 96 1014.5
20260901052004 68 0 0.0 0.0 0.00 0.58 0.00 96 1014.5
20260901051503 68 0 0.0 0.0 0.00 0.60 0.00 96 1014.6
20260901051003 68 0 0.0 0.0 0.00 0.60 0.00 96 1014.6
20260901050503 68 0 0.0 0.0 0.00 0.60 0.00 96 1014.6
20260901050003 69 0 0.0 0.0 0.00 0.60 0.00 96 1014.9
20260901045503 69 0 0.0 0.0 0.00 0.60 0.00 96 1014.8
20260901045003 68 0 0.0 0.0 0.00 0.60 0.00 96 1014.9
20260901044717 69 0 0.0 0.0 0.00 0.60 0.00 96 1015.0
20260901044003 69 211 0.0 1.0 0.00 0.60 0.00 96 1015.1
20260901043503 69 211 0.0 1.0 0.00 0.60 0.00 96 1015.2
20260901043218 69 0 0.0 0.0 0.00 0.60 0.00 96 1015.2
20260901042503 69 0 0.0 0.0 0.00 0.60 0.00 96 1015.2
20260901042003 69 0 0.0 0.0 0.00 0.60 0.00 96 1015.2
20260901041503 69 0 0.0 0.0 0.00 0.60 0.00 96 1015.2
20260901041003 69 0 0.0 0.0 0.00 0.60 0.00 96 1015.1
20260901040717 69 0 0.0 0.0 0.00 0.60 0.00 96 1015.2
20260901040218 69 0 0.0 0.0 0.00 0.60 0.00 96 1015.3
20260901035503 69 0 0.0 0.0 0.00 0.60 0.60 96 1015.2
20260901035003 69 0 0.0 0.0 0.00 0.60 0.60 96 1015.3
20260901034503 69 0 0.0 0.0 0.00 0.60 0.60 96 1015.3
20260901034003 69 0 0.0 0.0 0.00 0.60 0.60 96 1015.3
20260901033503 69 0 0.0 0.0 0.00 0.60 0.60 96 1015.3
20260901033003 69 0 0.0 0.0 0.00 0.60 0.60 96 1015.5
20260901032503 69 0 0.0 0.0 0.00 0.60 0.60 96 1015.3
20260901032003 69 0 0.0 0.0 0.00 0.60 0.60 96 1015.4
20260901031504 69 0 0.0 0.0 0.00 0.60 0.60 96 1015.5
20260901031218 69 0 0.0 0.0 0.00 0.60 0.60 96 1015.5
20260901030503 70 0 0.0 0.0 0.00 0.60 0.60 95 1015.5
20260901030003 70 0 0.0 0.0 0.00 0.60 0.60 96 1015.6
20260901025718 70 0 0.0 0.0 0.00 0.60 0.60 96 1015.5
20260901025003 70 0 0.0 0.0 0.00 0.60 0.60 96 1015.6
20260901024503 70 0 0.0 0.0 0.01 0.60 0.60 96 1015.7
20260901024003 70 0 0.0 0.0 0.02 0.60 0.60 96 1015.9
20260901023503 70 0 0.0 0.0 0.02 0.60 0.60 96 1016.1
20260901023003 70 0 0.0 0.0 0.03 0.60 0.60 96 1016.1
20260901022503 70 0 0.0 0.0 0.04 0.60 0.60 96 1016.1
20260901022003 70 0 0.0 0.0 0.04 0.60 0.60 96 1016.1
20260901021503 70 0 0.0 0.0 0.04 0.60 0.60 96 1016.1
20260901021003 70 0 0.0 0.0 0.04 0.60 0.60 96 1015.9
20260901020503 70 0 0.0 0.0 0.04 0.60 0.60 96 1016.0
20260901020003 70 0 0.0 0.0 0.04 0.60 0.60 96 1016.1
20260901015503 70 0 0.0 0.0 0.04 0.60 0.60 96 1016.1
20260901015003 70 0 0.0 0.0 0.05 0.60 0.60 96 1016.3
20260901014503 70 0 0.0 0.0 0.04 0.59 0.59 96 1016.3
20260901014003 70 0 0.0 0.0 0.03 0.58 0.58 96 1016.4
20260901013503 70 0 0.0 0.0 0.03 0.58 0.58 96 1016.4
20260901013003 71 0 0.0 0.0 0.02 0.57 0.57 96 1016.6
20260901012503 70 0 0.0 0.0 0.01 0.56 0.56 96 1016.5
20260901012003 71 0 0.0 0.0 0.01 0.56 0.56 96 1016.4
20260901011503 71 0 0.0 0.0 0.01 0.56 0.56 96 1016.4
20260901011003 71 0 0.0 0.0 0.01 0.56 0.56 96 1016.4
20260901010503 71 0 0.0 0.0 0.01 0.56 0.56 96 1016.2
20260901010003 71 0 0.0 0.0 0.01 0.56 0.56 95 1016.1
20260901005503 71 0 0.0 0.0 0.01 0.56 0.56 95 1016.1
20260901005003 71 211 0.0 2.0 0.00 0.55 0.55 96 1016.1
20260901004503 71 211 0.0 2.0 0.00 0.55 0.55 96 1016.0
20260901004219 71 211 0.0 1.0 0.00 0.55 0.55 96 1016.0
20260901003503 71 211 0.0 2.0 0.00 0.55 0.55 96 1016.0
20260901003003 71 211 0.0 2.0 0.00 0.55 0.55 96 1015.9
20260901002717 71 211 0.0 2.0 0.00 0.55 0.55 96 1015.7
20260901002003 71 216 0.0 1.0 0.00 0.55 0.55 96 1015.7
20260901001503 71 216 0.0 1.0 0.00 0.55 0.55 96 1015.7
20260901001003 71 0 0.0 0.0 0.00 0.55 0.55 95 1015.8
20260901000503 71 0 0.0 0.0 0.00 0.55 0.55 95 1015.7
20260901000003 71 121 0.0 1.0 0.00 0.55 0.55 95 1015.8
20260831235717 72 121 0.0 1.0 0.00 0.55 0.55 95 1015.8
20260831235003 72 0 0.0 0.0 0.00 0.55 0.55 96 1015.7
20260831234503 72 0 0.0 0.0 0.00 0.55 0.55 96 1015.7
20260831234003 72 0 0.0 0.0 0.00 0.55 0.55 96 1015.7
20260831233503 72 0 0.0 0.0 0.00 0.55 0.55 96 1015.8
20260831233003 72 0 0.0 0.0 0.00 0.55 0.55 95 1015.7
20260831232503 72 0 0.0 0.0 0.00 0.55 0.55 95 1015.6
20260831232003 72 0 0.0 0.0 0.00 0.55 0.55 95 1015.8
20260831231503 72 0 0.0 0.0 0.00 0.55 0.55 95 1015.8
20260831231003 72 0 0.0 0.0 0.00 0.55 0.55 96 1015.9
20260831230503 72 0 0.0 0.0 0.00 0.55 0.55 96 1016.0
20260831230003 72 0 0.0 0.0 0.00 0.55 0.55 96 1016.0
20260831225503 72 128 0.0 2.0 0.00 0.55 0.55 96 1016.1
20260831225003 72 146 0.0 2.0 0.00 0.55 0.55 96 1016.0
20260831224717 72 146 0.0 2.0 0.00 0.55 0.55 96 1016.0
20260831224003 72 0 0.0 0.0 0.00 0.55 0.55 96 1016.0
20260831223503 72 0 0.0 0.0 0.00 0.55 0.55 96 1016.1
20260831223003 72 0 0.0 0.0 0.00 0.55 0.55 96 1016.0
20260831222503 72 0 0.0 0.0 0.00 0.55 0.55 96 1016.0
20260831222003 72 0 0.0 0.0 0.00 0.55 0.55 96 1016.0
20260831221503 72 0 0.0 0.0 0.00 0.55 0.55 96 1016.1
20260831221003 72 0 0.0 0.0 0.00 0.55 0.55 96 1016.1
20260831220503 72 53 0.0 4.0 0.00 0.55 0.55 96 1016.1
20260831220003 72 71 0.0 4.0 0.00 0.55 0.55 96 1016.1
20260831215503 72 203 0.0 1.0 0.00 0.55 0.55 96 1016.1
20260831215003 72 198 0.0 1.0 0.00 0.55 0.55 96 1016.2
20260831214503 72 0 0.0 0.0 0.00 0.55 0.55 96 1016.2
20260831214003 72 0 0.0 0.0 0.00 0.55 0.55 96 1016.2
20260831213503 72 160 0.0 1.0 0.00 0.55 0.55 96 1016.2
20260831213003 72 160 0.0 1.0 0.00 0.55 0.55 96 1016.1
20260831212503 72 0 0.0 0.0 0.00 0.55 0.55 96 1016.2
20260831212003 72 0 0.0 0.0 0.00 0.55 0.55 96 1016.2
20260831211503 72 0 0.0 0.0 0.00 0.55 0.55 96 1016.1
20260831211003 72 0 0.0 0.0 0.00 0.55 0.55 96 1016.1
20260831210503 72 166 0.0 1.0 0.00 0.55 0.55 96 1015.9
20260831210003 72 166 0.0 1.0 0.00 0.55 0.55 96 1015.9
20260831205503 71 0 0.0 0.0 0.00 0.55 0.55 96 1015.8
20260831205003 71 0 0.0 0.0 0.00 0.55 0.55 96 1016.0
20260831204503 71 165 0.0 3.0 0.00 0.55 0.55 96 1015.9
20260831204003 71 165 0.0 3.0 0.00 0.55 0.55 96 1016.0
20260831203503 71 155 0.0 1.0 0.00 0.55 0.55 96 1016.0
20260831203003 71 155 0.0 1.0 0.01 0.55 0.55 96 1016.1
20260831202503 71 155 0.0 1.0 0.01 0.55 0.55 96 1016.0
20260831202217 71 155 0.0 1.0 0.01 0.55 0.55 96 1016.2
20260831201503 71 155 0.0 1.0 0.02 0.55 0.55 96 1016.1
20260831201003 71 155 0.0 1.0 0.02 0.55 0.55 96 1016.1
20260831200503 71 155 0.0 1.0 0.02 0.56 0.55 96 1016.1
20260831200003 71 155 0.0 1.0 0.02 0.56 0.55 96 1016.2
20260831195503 71 155 0.0 1.0 0.02 0.56 0.55 96 1016.2
20260831195003 71 155 0.0 1.0 0.02 0.57 0.55 96 1016.3
20260831194503 71 144 0.0 1.0 0.02 0.58 0.55 96 1016.3
20260831194003 71 147 0.0 1.0 0.02 0.58 0.55 96 1016.5
20260831193503 71 175 0.0 2.0 0.02 0.58 0.55 96 1016.6
20260831193003 71 175 0.0 2.0 0.01 0.57 0.54 96 1016.7
20260831192718 71 175 0.0 2.0 0.01 0.58 0.54 96 1016.6
20260831192003 70 160 0.0 1.0 0.01 0.58 0.54 96 1016.5
20260831191503 70 121 0.0 1.0 0.00 0.57 0.53 96 1016.6
20260831191003 70 80 0.0 1.0 0.00 0.57 0.53 96 1016.6
20260831190504 70 80 0.0 1.0 0.00 0.57 0.53 96 1016.6
20260831190003 70 80 0.0 1.0 0.01 0.57 0.53 96 1016.7
20260831185503 70 0 0.0 0.0 0.01 0.57 0.53 96 1016.7
20260831185003 70 0 0.0 0.0 0.02 0.57 0.53 96 1016.7
20260831184717 70 80 0.0 2.0 0.02 0.57 0.53 96 1016.8
20260831184218 70 80 0.0 2.0 0.02 0.57 0.53 96 1016.8
20260831183503 70 80 0.0 1.0 0.03 0.57 0.53 96 1016.9
20260831183003 70 80 0.0 1.0 0.03 0.57 0.53 96 1017.1
20260831182717 70 80 0.0 1.0 0.03 0.57 0.53 96 1017.1
20260831182218 70 80 0.0 1.0 0.03 0.57 0.53 96 1017.2
20260831181503 70 80 0.0 1.0 0.03 0.57 0.53 96 1017.1
20260831181003 69 80 0.0 2.0 0.03 0.57 0.53 96 1017.1
20260831180503 70 80 0.0 2.0 0.03 0.57 0.53 96 1017.2
20260831180003 70 80 0.0 1.0 0.02 0.56 0.52 96 1017.1
20260831175503 70 0 0.0 0.0 0.02 0.56 0.52 96 1017.4
20260831175003 70 80 0.0 1.0 0.01 0.55 0.51 96 1017.4
20260831174503 70 80 0.0 1.0 0.01 0.55 0.51 96 1017.3
20260831174218 70 80 0.0 1.0 0.01 0.55 0.51 96 1017.3
20260831173503 70 80 0.0 2.0 0.00 0.54 0.50 96 1017.3
20260831173003 70 80 0.0 2.0 0.00 0.54 0.50 96 1017.3
20260831172717 70 80 0.0 2.0 0.00 0.54 0.50 96 1017.4
20260831172003 70 80 0.0 1.0 0.01 0.54 0.50 96 1017.4
20260831171503 69 80 0.0 1.0 0.01 0.54 0.50 97 1017.4
20260831171003 69 16 0.0 3.0 0.01 0.54 0.50 97 1017.4
20260831170718 69 353 0.0 3.0 0.01 0.54 0.50 97 1017.5
20260831170218 69 301 0.0 2.0 0.01 0.54 0.50 97 1017.6
20260831165503 69 323 0.0 2.0 0.01 0.54 0.50 97 1017.7
20260831165003 68 37 0.0 2.0 0.01 0.54 0.50 97 1017.7
20260831164503 68 51 0.0 1.0 0.01 0.54 0.50 97 1017.8
20260831164003 68 51 0.0 1.0 0.01 0.54 0.50 97 1017.7
20260831163503 68 51 0.0 1.0 0.01 0.54 0.50 97 1017.7
20260831163003 68 49 0.0 1.0 0.01 0.54 0.50 97 1017.7
20260831162503 67 46 0.0 1.0 0.01 0.54 0.50 97 1017.7
20260831162003 67 40 0.0 1.0 0.00 0.53 0.49 97 1017.7
20260831161716 67 0 0.0 0.0 0.00 0.53 0.49 97 1017.8
20260831161003 67 0 0.0 0.0 0.00 0.53 0.49 97 1018.0
20260831160718 66 0 0.0 0.0 0.00 0.53 0.49 96 1018.0
20260831160003 66 40 0.0 1.0 0.01 0.53 0.49 96 1018.1
20260831155718 66 40 0.0 1.0 0.01 0.53 0.49 96 1018.1
20260831155003 66 40 0.0 1.0 0.01 0.53 0.49 96 1018.2
20260831154503 66 0 0.0 0.0 0.02 0.53 0.49 96 1018.2
20260831154003 66 0 0.0 0.0 0.02 0.54 0.49 96 1018.2
20260831153503 66 0 0.0 0.0 0.02 0.54 0.49 96 1018.3
20260831153003 66 0 0.0 0.0 0.02 0.54 0.49 96 1018.3
20260831152503 66 0 0.0 0.0 0.02 0.55 0.49 96 1018.3
20260831152004 66 40 0.0 2.0 0.03 0.55 0.49 96 1018.4
20260831151503 66 40 0.0 2.0 0.03 0.55 0.49 96 1018.3
20260831151003 66 0 0.0 0.0 0.03 0.55 0.49 96 1018.3
20260831150504 66 19 0.0 1.0 0.02 0.54 0.48 96 1018.2
20260831150217 66 19 0.0 1.0 0.02 0.54 0.48 96 1018.3
20260831145718 66 19 0.0 1.0 0.02 0.54 0.48 96 1018.2
20260831145217 66 17 0.0 1.0 0.02 0.54 0.48 96 1018.0
20260831144505 66 11 0.0 1.0 0.02 0.53 0.47 96 1018.0
20260831144003 66 11 0.0 1.0 0.03 0.53 0.47 96 1018.1
20260831143503 66 11 0.0 1.0 0.04 0.53 0.47 96 1018.1
20260831143003 66 11 0.0 1.0 0.04 0.53 0.47 96 1018.3
20260831142503 66 11 0.0 1.0 0.05 0.53 0.47 96 1018.3
20260831142003 66 0 0.0 0.0 0.04 0.52 0.46 96 1018.3
20260831141503 66 0 0.0 0.0 0.06 0.52 0.46 96 1018.1
20260831141003 66 0 0.0 0.0 0.08 0.52 0.46 96 1018.3
20260831140720 66 11 0.0 1.0 0.09 0.52 0.46 96 1018.3
20260831140003 66 11 0.0 1.0 0.12 0.52 0.46 96 1018.3
20260831135503 66 11 0.0 1.0 0.13 0.52 0.46 96 1018.3
20260831135003 66 11 0.0 1.0 0.13 0.52 0.46 96 1018.3
20260831134504 66 0 0.0 0.0 0.12 0.51 0.45 96 1018.4
20260831134216 66 0 0.0 0.0 0.11 0.50 0.44 96 1018.5